Location: Mount Kobau Star Party
(49.1167°N, 119.7333°W)
Time: 10:35:37
(UTC-07:00)

BlueWalker 3 - Pass Details

Date: 28 February 2024
Orbit: 485 x 496 km, 53.2° (Epoch: 11 April)

Event Time Altitude Azimuth Distance (km) Brightness Sun altitude
Rises 18:39:25 0° 289° (WNW) 2,556 7.1 -10.5°
Reaches altitude 10° 18:41:39 10° 295° (WNW) 1,673 5.7 -10.8°
Maximum altitude 18:45:20 50° 12° (NNE) 623 2.3 -11.4°
Enters shadow 18:47:51 18° 83° (E) 1,232 3.3 -11.9°
